This demonstration page uses our WeatherBlox Daily Observations layout. Learn more.

Left ArrowRight Arrow

Hourly Observations for November 9, 2018

Temp ( °F °C ) Dew Point ( °F °C ) Humidity (%) Winds ( mph kmh ) Pressure ( in mb ) Visibility ( mi km ) Precip ( " mm )
12:53 am 00:53 Clear 6 -14.4 2 -16.7 83 83 ENE 7 11 30.57 1035 10 16 0.00 0.00
1:53 am 01:53 Clear 6 -14.4 2 -16.7 83 83 E 7 11 30.55 1035 10 16 0.00 0.00
2:53 am 02:53 Clear 5 -15 1 -17.2 83 83 E 5 7 30.53 1034 10 16 0.00 0.00
3:53 am 03:53 Clear 4 -15.6 1 -17.2 88 88 E 5 7 30.50 1033 10 16 0.00 0.00
4:53 am 04:53 Clear 4 -15.6 1 -17.2 88 88 E 5 7 30.49 1033 10 16 0.00 0.00
5:53 am 05:53 Clear 4 -15.6 1 -17.2 88 88 E 5 7 30.46 1032 10 16 0.00 0.00
6:53 am 06:53 Clear 4 -15.6 1 -17.2 88 88 Calm 30.43 1030 10 16 0.00 0.00
7:53 am 07:53 Sunny 5 -15 1 -17.2 83 83 Calm 30.40 1030 10 16 0.00 0.00
8:53 am 08:53 Sunny 8 -13.3 3 -16.1 80 80 Calm 30.36 1028 10 16 0.00 0.00
9:53 am 09:53 Sunny 11 -11.7 5 -15 77 77 SE 5 7 30.33 1027 10 16 0.00 0.00
10:53 am 10:53 Sunny 14 -10 7 -13.9 73 73 ENE 5 7 30.27 1025 10 16 0.00 0.00
11:53 am 11:53 Partly Cloudy 18 -7.8 11 -11.7 74 74 E 9 15 30.20 1023 10 16 0.00 0.00
12:53 pm 12:53 Cloudy 22 -5.6 13 -10.6 68 68 Calm 30.13 1020 10 16 0.00 0.00
1:53 pm 13:53 Cloudy 27 -2.8 18 -7.8 69 69 NW 3 6 30.08 1019 10 16 0.00 0.00
2:53 pm 14:53 Cloudy 35 1.7 22 -5.6 59 59 SW 18 30 30.00 1016 10 16 0.00 0.00
3:53 pm 15:53 Cloudy 37 2.8 20 -6.7 50 50 SW 23 37 29.95 1014 10 16 0.00 0.00
4:53 pm 16:53 Cloudy 36 2.2 21 -6.1 55 55 SW 18 30 29.96 1014 10 16 0.00 0.00
5:53 pm 17:53 Cloudy 37 2.8 21 -6.1 52 52 SW 16 26 29.93 1014 10 16 0.00 0.00
6:53 pm 18:53 Cloudy 37 2.8 22 -5.6 54 54 SW 18 30 29.93 1014 10 16 0.00 0.00
7:53 pm 19:53 Cloudy 35 1.7 24 -4.4 64 64 WSW 12 19 29.92 1013 10 16 0.00 0.00
8:53 pm 20:53 Cloudy 35 1.7 25 -3.9 67 67 SW 18 30 29.90 1013 10 16 0.00 0.00
9:53 pm 21:53 Cloudy 35 1.7 25 -3.9 67 67 WSW 16 26 29.91 1013 10 16 0.00 0.00
10:53 pm 22:53 Cloudy 35 1.7 26 -3.3 70 70 W 12 19 29.92 1013 10 16 0.00 0.00
11:10 pm 23:10 Cloudy with Light Snow 36 2 27 -3 70 70 W 9 15 29.88 1012 9 14 0.00 0.00
11:53 pm 23:53 Cloudy with Light Snow 32 0 26 -3.3 79 79 WNW 8 13 29.95 1014 6 10 0.01 0.25

Powered by AerisWeather